Location: Unspecified
(0.0000°N, 0.0000°E)
Time: 02:23:14
(UTC+00:00)

STARLINK-32134 - Visible Passes

Search period start: 04 October 2024 00:00
Search period end: 14 October 2024 00:00
Orbit: 474 x 476 km, 53.2° (Epoch: 03 October)

Date Brightness Start Highest point End Pass type
(mag) Time Alt. Az. Time Alt. Az. Time Alt. Az.
04 Oct 6.1 19:42:23 10° SSW 19:42:54 13° SSW 19:42:54 13° SSW visible
05 Oct 4.0 19:12:58 10° SSW 19:15:42 42° S 19:15:42 42° S visible
06 Oct 3.7 18:43:38 10° SSW 18:47:10 44° SE 18:48:36 29° ENE visible
07 Oct 4.1 18:14:21 10° S 18:17:45 34° SE 18:21:08 10° ENE visible
08 Oct 6.4 19:24:52 10° WNW 19:26:02 11° NW 19:27:13 10° NW visible
09 Oct 6.2 18:54:38 10° W 18:56:38 14° NW 18:58:39 10° NNW visible
10 Oct 5.9 05:01:28 10° N 05:04:12 20° NE 05:06:57 10° ESE visible
10 Oct 6.1 18:24:45 10° W 18:27:16 17° NW 18:29:47 10° NNW visible
11 Oct 6.1 04:32:30 10° NNE 04:34:50 16° NE 04:37:10 10° E visible
12 Oct 6.2 04:03:46 10° NNE 04:05:29 13° NE 04:07:13 10° E visible
13 Oct 6.5 03:36:24 10° ENE 03:36:24 10° ENE 03:36:38 10° ENE visible
13 Oct 4.3 05:10:35 10° WNW 05:13:51 30° SW 05:17:09 10° S visible
